星链-30926 (STARLINK-30926 )

导读

STARLINK-30926是美国太空探索技术公司SpaceX星链卫星互联网项目的卫星,于2023年11月28日发射升空,归属美国所有。它是星链低轨星座组网的一员,主要为全球范围内用户提供高速低延迟的互联网接入服务,进一步扩充了星链星座的在轨规模,推进了星链全球覆盖的建设进程。

Basic Information
目录编号:
58448
目录名称:
STARLINK-30926
国际标识:
2023-183M
轨道中心:
EARTH
卫星名称:
星链-30926
卫星全名:
星链-30926 (STARLINK-30926 )
卫星状态:
在轨 (已飞行1011 天)
发射日期:
2023-11-28 UTC
国别 :
美国 (US)
星等 :
--
Orbit Information
数据来源 国际轨道数据
星历时间: 2026-09-04T00:52:09+0800
19小时前
查看轨道信息
半长轴: 6861.193km
偏心率: 0.0001276
轨道倾角: 43.002°
近地点辐角 255.878°
升交点赤经 115.866°
平近点角 104.193°
近地点: 482.18km
远地点: 483.932km
周期: 94.267分钟
每日圈数: 15.27578
Detailed Information
固有亮度:
5
最大亮度:
0.3
卫星平台:
Starlink v2.0 mini
覆盖范围:
全球
运营商:
太空探索技术公司
运营商所在国:
美国
制造商(研发单位):
太空探索技术公司
制造商所在国:
美国
使用方式:
暂无
Satellite Introduction
星链(Starlink)计划是由太空探索技术公司(SpaceX)提出的一个巨型低轨卫星互联网星座项目,计划在2019年至2024年间在太空搭建由约1.2万颗卫星组成的“星链”网络,其中1584颗将部署在地球上空550千米处的近地轨道,并从2020年开始工作。该卫星仍在工作。
2D Orbit Map
3D Orbit Map
Orbit Altitude Analysis Chart
Orbit Inclination Analysis Chart
Orbit Comprehensive Analysis Chart
View Comprehensive Chart
Conjunction Data List
Event ID Objects TCA Miss Dist (km) Collision Risk Probability Collision Risk Index (CRI) Action
CDM_260829-124005-844806-762922
2026-08-29T
12:40:46+0000
0.870 km
远距离
2.794414E-5 中风险 0.64
CDM_260829-141405-844806-762921
2026-08-29T
14:14:55+0000
1.928 km
极远距离
2.112314E-6 低风险 0.41
CDM_260829-130303-557305-844822
2026-08-29T
13:03:19+0000
2.683 km
极远距离
1.51712E-6 低风险 0.39
CDM_260829-110605-844806-762922
2026-08-29T
11:06:37+0000
2.695 km
极远距离
1.075531E-6 低风险 0.36